[[{"header":{"parameterUnit":"m.s-1","parameterCategory":1,"la1":30.2991,"la2":30.254,"lo1":-89.0895,"lo2":-89.0444,"dy":0.0017,"dx":0.0017,"nx":28,"ny":28,"refTime":"2024-05-15T03:00:00:Z","depth":0,"parameterNumber":2,"parameterNumberName":"U-component_of_WINDS"},"data":[0,0,0,0,0,0,0,0,0,0,0,0,0,0,0,0,0,0,0,0,0,0,0,0,0,0,0,0,0,0,0,0,0,0,0,0,0,0,0,0,0,0,0,0,0,0,0,0,0,0,0,0,0,0,0,0,0,0,0.0348,0.0349,0,0.0478,0.0479,0.0481,0.0481,0.0479,0.0478,0.0476,0.0616,0.0621,0.0627,0,0,0,0,0,0,0,0,0,0,0,0,0,0.0107,0.0111,0.0348,0.0349,0.0351,0.0478,0.0479,0.0481,0.0481,0.0479,0.0477,0.0475,0.0615,0.0621,0.0627,0,0,0,0,0,0,0,0,0,0,0,0,0,0.0222,0.0112,0.0347,0.0366,0.0369,0.0477,0.0479,0.0482,0.0482,0.0479,0.0477,0.0474,0.0612,0.062,0.0628,0.0728,0,0,0.0652,0.0656,0,0,0,0,0,0,0,0,0.0215,0.023,0.0362,0.0365,0.0369,0.046,0.0446,0.0565,0.0482,0.0439,0.0476,0.0473,0.0567,0.0578,0.0609,0.0735,0.0741,0.0653,0.0658,0.0661,0.0664,0,0,0,0,0,0,0,0.0207,0.0225,0.0399,0.0364,0.0368,0.037,0.0384,0.0468,0.0516,0.0443,0.0443,0.0458,0.0568,0.0601,0.0612,0.0743,0.0653,0.066,0.0665,0.0668,0.0959,0.0962,0,0,0,0,0,0,0.0194,0.0218,0.0395,0.0403,0.0284,0.0377,0.0392,0.0434,0.0515,0.0525,0.046,0.0458,0.0589,0.0603,0.0617,0.0741,0.0661,0.0669,0.0673,0.0957,0.096,0.0963,0,0,0,0,0,0,0.0189,0.021,0.039,0.0311,0.0334,0.0384,0.0431,0.0438,0.047,0.0528,0.0537,0.0484,0.0587,0.0606,0.07,0.0746,0.0672,0.068,0.0953,0.0958,0.0962,0.0989,0,0,0,0,0,0,0.0182,0.0208,0.0245,0.0312,0.0338,0.0469,0.0433,0.0442,0.0483,0.0481,0.0553,0.0563,0.0587,0.0688,0.0708,0.0755,0.0686,0.0949,0.0955,0.096,0.0984,0.0994,0.1002,0,0,0,0,0,0.0174,0.0249,0.0247,0.0268,0.0385,0.0472,0.0487,0.0511,0.0487,0.0525,0.0563,0.0561,0.0737,0.0698,0.0721,0.0771,0.0947,0.0953,0.096,0.098,0.0992,0.1001,0,0,0,0,0,0,0.0189,0.0258,0.0257,0.0355,0.0407,0.0472,0.0521,0.0522,0.0585,0.058,0.0609,0.0626,0.0721,0.0755,0.071,0.0873,0.0839,0.0851,0.0847,0.0858,0.0867,0.0858,0.0692,0,0,0,0,0,0.0203,0.0266,0.0323,0.0405,0.0431,0.0471,0.051,0.0524,0.058,0.0603,0.0647,0.0704,0.0772,0.0817,0.0883,0.0988,0.1006,0.1034,0.1043,0.105,0.106,0.112,0.1134,0.0985,0.0985,0.0985,0,0,0.0234,0.028,0.0318,0.0409,0.0451,0.0518,0.049,0.0562,0.0612,0.0615,0.0707,0.0741,0.0806,0.0907,0.0954,0.0939,0.1105,0.1058,0.1063,0.107,0.1129,0.1143,0.1155,0.099,0.0989,0.0988,0,0,0.0325,0.0365,0.0438,0.048,0.0543,0.057,0.0587,0.0652,0.0674,0.0766,0.077,0.0831,0.0948,0.0995,0.1034,0.1142,0.1144,0.1163,0.121,0.1268,0.128,0.1291,0.1332,0.1346,0.1173,0.1173,0.1173,0,0.0357,0.0455,0.0476,0.0547,0.0588,0.0591,0.0666,0.0707,0.079,0.0819,0.08,0.0947,0.0991,0.1104,0.113,0.1161,0.1184,0.1156,0.1276,0.1287,0.1297,0.1337,0.1352,0.1175,0.1175,0.1174,0.1174,0,0.0492,0.056,0.0611,0.0689,0.0735,0.0808,0.0842,0.0888,0.0897,0.0926,0.1021,0.1074,0.1151,0.1179,0.1189,0.1294,0.1282,0.1269,0.1237,0.1313,0.1351,0.1366,0.1178,0.1177,0.1177,0.1176,0,0,0.0597,0.0684,0.0703,0.0739,0.0809,0.0863,0.0937,0.101,0.105,0.1106,0.1171,0.1269,0.1258,0.1302,0.1319,0.1369,0.1455,0.1351,0.1353,0.137,0.1575,0.1585,0.1602,0.1455,0.1458,0.146,0.157,0,0.0697,0.0826,0.0847,0.0962,0.1026,0.103,0.1095,0.1146,0.1175,0.1236,0.1269,0.1339,0.1318,0.1345,0.1395,0.1433,0.1496,0.1425,0.1518,0.1521,0.1503,0.1622,0.1633,0.1734,0.1585,0.1587,0.1589,0,0.0831,0.089,0.101,0.1072,0.11,0.1157,0.1227,0.1284,0.1343,0.1361,0.141,0.142,0.15,0.1462,0.1573,0.1524,0.1563,0.1588,0.1593,0.1604,0.1561,0.1638,0.1767,0.1783,0.1612,0.161,0.1608,0,0.0899,0.1007,0.1094,0.1124,0.1198,0.1238,0.1272,0.1328,0.1371,0.1432,0.1461,0.1531,0.1571,0.1626,0.1656,0.1625,0.1767,0.1731,0.1786,0.1786,0.1817,0.1815,0.1956,0.1839,0.1839,0.1838,0.1838,0,0.1009,0.1083,0.1125,0.1178,0.1262,0.1286,0.1369,0.1402,0.1452,0.1513,0.1521,0.1579,0.1614,0.1678,0.1702,0.1792,0.1809,0.1828,0.1834,0.1829,0.1826,0.1856,0.1851,0.1843,0.1842,0.1841,0.184,0,0.1099,0.113,0.1225,0.1286,0.1303,0.1363,0.1416,0.147,0.1498,0.1576,0.1596,0.1642,0.1718,0.1752,0.1846,0.1863,0.1966,0.1966,0.1945,0.1948,0.2002,0.1997,0.2169,0.2194,0.2058,0.2059,0.206,0,0.1169,0.1226,0.1293,0.1333,0.1367,0.1433,0.1476,0.1502,0.1548,0.1619,0.1665,0.174,0.1802,0.1923,0.1967,0.2039,0.2042,0.2097,0.2054,0.2047,0.2046,0.2043,0.205,0.2106,0.2107,0.2109,0.2109,0,0.129,0.1302,0.1363,0.143,0.1481,0.1536,0.1589,0.1623,0.1658,0.1709,0.1785,0.1833,0.1928,0.2004,0.2079,0.2116,0.212,0.2122,0.214,0.2136,0.2122,0.2132,0.1969,0.2119,0.2118,0.2117,0.2117,0.2116,0.1374,0.1425,0.148,0.1548,0.159,0.164,0.1694,0.1728,0.1791,0.1869,0.1881,0.1963,0.2023,0.2123,0.2163,0.2229,0.2217,0.2241,0.2247,0.2254,0.2258,0.2109,0.2243,0.2243,0.2242,0.2242,0.2242,0,0.1497,0.1532,0.1594,0.1668,0.1722,0.1717,0.1777,0.1824,0.1895,0.1948,0.2008,0.2097,0.217,0.2219,0.2294,0.2338,0.2342,0.2357,0.2355,0.2364,0.2264,0.2242,0.2353,0.2353,0.2353,0.2353,0.2353,0.2353,0.1567,0.1654,0.1672,0.1781,0.1817,0.1895,0.193,0.1977,0.2019,0.2117,0.2177,0.2207,0.226,0.2339,0.2407,0.242,0.2448,0.2464,0.2477,0.2383,0.2371,0.236,0.234,0.247,0.247,0.2572,0.2573,0.2574]},{"header":{"parameterUnit":"m.s-1","parameterCategory":1,"la1":30.2991,"la2":30.254,"lo1":-89.0895,"lo2":-89.0444,"dy":0.0017,"dx":0.0017,"nx":28,"ny":28,"refTime":"2024-05-15T03:00:00:Z","depth":0,"parameterNumber":3,"parameterNumberName":"V-component_of_WINDS"},"data":[0,0,0,0,0,0,0,0,0,0,0,0,0,0,0,0,0,0,0,0,0,0,0,0,0,0,0,0,0,0,0,0,0,0,0,0,0,0,0,0,0,0,0,0,0,0,0,0,0,0,0,0,0,0,0,0,0,0,1.6114,1.6116,0,1.6354,1.6357,1.636,1.6408,1.6406,1.6405,1.6403,1.6649,1.6657,1.6665,0,0,0,0,0,0,0,0,0,0,0,0,0,1.5696,1.5703,1.6113,1.6116,1.6119,1.6354,1.6357,1.636,1.6409,1.6406,1.6404,1.6402,1.6646,1.6656,1.6666,0,0,0,0,0,0,0,0,0,0,0,0,0,1.5901,1.5706,1.6113,1.6172,1.6179,1.6353,1.6357,1.6361,1.6409,1.6406,1.6403,1.6401,1.6643,1.6655,1.6667,1.6799,0,0,1.6705,1.671,0,0,0,0,0,0,0,0,1.5889,1.5916,1.616,1.6168,1.6177,1.6348,1.63,1.6508,1.641,1.6322,1.6403,1.64,1.6551,1.6571,1.6622,1.681,1.6821,1.6706,1.6714,1.6719,1.6722,0,0,0,0,0,0,0,1.5875,1.5906,1.6209,1.6164,1.6174,1.6186,1.6212,1.634,1.6449,1.6329,1.6333,1.6361,1.6555,1.661,1.6628,1.6824,1.6706,1.6717,1.6724,1.6729,1.7134,1.7137,0,0,0,0,0,0,1.585,1.5894,1.6201,1.6216,1.6023,1.6196,1.6225,1.6296,1.6448,1.6468,1.6363,1.6363,1.659,1.6614,1.6637,1.6803,1.6719,1.673,1.6737,1.7131,1.7135,1.7138,0,0,0,0,0,0,1.5841,1.5877,1.6191,1.6056,1.6097,1.6206,1.6285,1.6302,1.6357,1.6473,1.6493,1.6399,1.6589,1.6619,1.6758,1.6812,1.6736,1.6747,1.7127,1.7132,1.7136,1.7134,0,0,0,0,0,0,1.5829,1.5874,1.5925,1.6057,1.6104,1.6309,1.6289,1.6309,1.6379,1.638,1.6512,1.6532,1.6589,1.674,1.6771,1.6827,1.6757,1.7123,1.7129,1.7135,1.713,1.7138,1.7145,0,0,0,0,0,1.5814,1.5914,1.5927,1.5964,1.617,1.6312,1.6339,1.6403,1.6382,1.6435,1.651,1.6528,1.68,1.6753,1.6789,1.685,1.712,1.7127,1.7134,1.7126,1.7136,1.7145,0,0,0,0,0,0,1.5786,1.5933,1.5949,1.6095,1.619,1.632,1.6388,1.6412,1.6515,1.6512,1.6587,1.6616,1.6751,1.6814,1.6759,1.6986,1.6959,1.6974,1.694,1.6951,1.6959,1.6941,1.6767,0,0,0,0,0,1.5796,1.5899,1.6022,1.6139,1.6186,1.6279,1.6343,1.6384,1.6486,1.6527,1.6611,1.671,1.6818,1.6887,1.6993,1.7138,1.7168,1.7197,1.7205,1.7211,1.7224,1.7306,1.7321,1.7163,1.7163,1.7163,0,0,1.582,1.5913,1.5973,1.6135,1.6214,1.632,1.6312,1.6424,1.6502,1.6543,1.6681,1.6746,1.6861,1.7003,1.7071,1.706,1.7274,1.722,1.7224,1.7234,1.7315,1.733,1.7344,1.7168,1.7167,1.7166,0,0,1.5916,1.5996,1.6103,1.6183,1.6302,1.6363,1.6389,1.6515,1.656,1.6699,1.6732,1.6826,1.7011,1.7092,1.7157,1.7283,1.7304,1.7315,1.7357,1.7437,1.7449,1.7461,1.7508,1.7523,1.7327,1.7327,1.7327,0,1.5931,1.609,1.6155,1.6266,1.6337,1.6378,1.6488,1.6561,1.6709,1.6757,1.6743,1.6976,1.7055,1.7219,1.7249,1.73,1.7332,1.7302,1.7442,1.7454,1.7466,1.7512,1.7529,1.7328,1.7328,1.7328,1.7328,0,1.6102,1.6212,1.6284,1.6427,1.6506,1.6615,1.6696,1.6768,1.6802,1.6864,1.7005,1.7102,1.7229,1.727,1.7304,1.7438,1.7428,1.7427,1.7402,1.7481,1.7525,1.7543,1.7329,1.7329,1.7328,1.7328,0,0,1.619,1.6367,1.6392,1.6458,1.6593,1.6679,1.679,1.6914,1.6975,1.7075,1.717,1.7325,1.7325,1.7399,1.7442,1.7511,1.7607,1.7502,1.7506,1.752,1.7763,1.7765,1.7784,1.7621,1.7624,1.7627,1.7754,0,1.6305,1.6505,1.6566,1.6734,1.6837,1.6877,1.6974,1.7067,1.7128,1.7224,1.7291,1.74,1.7391,1.7436,1.7506,1.7581,1.7658,1.7572,1.7712,1.7716,1.7684,1.7807,1.7809,1.7925,1.7772,1.7775,1.7777,0,1.6466,1.6569,1.6747,1.6869,1.6915,1.7001,1.712,1.7211,1.7318,1.7357,1.7439,1.7476,1.7594,1.756,1.7723,1.7663,1.7724,1.7769,1.7775,1.7792,1.7753,1.783,1.7963,1.7981,1.7804,1.7802,1.78,0,1.6514,1.6698,1.6828,1.6883,1.7028,1.7088,1.7151,1.7255,1.7326,1.7429,1.7476,1.7591,1.7655,1.7744,1.7811,1.778,1.7969,1.7941,1.8006,1.8005,1.8047,1.8043,1.8193,1.8081,1.8081,1.808,1.808,0,1.6637,1.6745,1.6852,1.6933,1.7055,1.7124,1.7243,1.7308,1.74,1.7494,1.7535,1.7622,1.7705,1.7803,1.7856,1.7984,1.8012,1.8048,1.8061,1.8046,1.8041,1.8088,1.8083,1.8085,1.8084,1.8083,1.8082,0,1.6713,1.6789,1.6934,1.706,1.7094,1.7179,1.7286,1.7366,1.7428,1.7546,1.7578,1.7675,1.7793,1.7869,1.8018,1.8054,1.8195,1.8205,1.8159,1.8166,1.8229,1.8223,1.8416,1.8446,1.8311,1.8312,1.8313,0,1.6788,1.6872,1.7006,1.7073,1.7137,1.7242,1.7315,1.7386,1.746,1.7587,1.7652,1.7772,1.7873,1.8059,1.8143,1.8258,1.8272,1.8332,1.829,1.8272,1.8276,1.8271,1.8281,1.8339,1.834,1.8341,1.8342,0,1.6913,1.6946,1.705,1.7167,1.7252,1.7347,1.7442,1.7494,1.7581,1.7662,1.7783,1.7861,1.8014,1.8134,1.8256,1.8321,1.8347,1.8354,1.8376,1.8363,1.8334,1.8353,1.8181,1.835,1.8349,1.8349,1.8348,1.8348,1.6993,1.707,1.7177,1.7291,1.7369,1.7457,1.7539,1.7611,1.7713,1.7844,1.7879,1.8006,1.811,1.8278,1.8345,1.8445,1.8438,1.8469,1.8477,1.8484,1.8487,1.8315,1.8468,1.8467,1.8467,1.8467,1.8467,0,1.7122,1.7193,1.7297,1.7429,1.7518,1.7533,1.7639,1.7714,1.7825,1.792,1.8018,1.8158,1.8274,1.8367,1.8486,1.8549,1.8563,1.8578,1.8575,1.859,1.8485,1.8456,1.8564,1.8564,1.8564,1.8564,1.8564,1.8564,1.72,1.7332,1.7378,1.7549,1.7619,1.7744,1.7804,1.7885,1.7962,1.8116,1.8213,1.8272,1.8367,1.8493,1.8601,1.8625,1.8668,1.868,1.8707,1.8608,1.8597,1.8587,1.856,1.8689,1.8689,1.8804,1.8805,1.8806]}]]